Back to catalog

CZ-6A DEB

AlivePO
NORAD 61349·DEBRIS·🇨🇳 China

Launched Aug 6, 2024 from Taiyuan Satellite Launch Center

Loading…

Next Passes (next 24 hours)

TLE

FreshSource: Space-Track

Epoch: Sep 14, 2026, 11:16 UTC

1 61349U 24140VN  26257.46982187  .00002581  00000-0  41685-3 0  9994
2 61349  89.0600 264.5974 0130605 286.0573  72.6293 14.65533444108323

Track CZ-6A DEB in real time with AllMySat

Download on the App Store